Temp
56 56 56 56 56 56 56 56 56 56 56 57 57 57 57 57 56 59 71 74 70 74 81 82 84 83 86 85 80 80 75 77 79 71 74 66 76 79 78 79 79 79 76 77 80 75 71 88 87 81 81 87 88 88
56 56 56 56 56 56 56 56 56 56 56 56 57 57 57 57 56 57 70 77 76 69 80 82 85 88 87 87 88 86 86 75 84 77 72 75 74 82 79 76 82 78 82 80 78 78 80 86 85 87 90 87 87 87
55 55 55 55 55 55 56 56 56 56 56 56 56 57 57 56 56 56 66 70 72 72 79 83 86 90 91 90 95 84 86 86 78 88 82 76 68 82 78 80 79 80 83 85 77 81 82 84 87 88 90 88 90 91
55 55 54 54 54 55 55 55 56 56 56 56 56 56 56 56 55 55 65 73 70 73 71 84 90 86 89 91 89 92 90 89 85 81 84 82 74 77 78 80 80 84 82 81 79 80 82 84 87 88 88 89 89 89
54 54 54 54 54 54 55 55 55 55 55 55 55 55 55 55 54 58 66 69 72 69 71 78 88 90 90 89 86 87 90 89 85 83 81 80 88 81 81 85 84 87 85 84 84 86 87 85 87 89 86 86 87 86
54 55 54 55 55 55 55 55 54 55 55 55 55 54 54 54 54 66 71 71 73 74 70 72 86 83 86 85 84 85 86 87 85 86 86 90 86 84 82 80 87 90 87 91 88 91 87 89 88 89 86 86 86 86
53 54 55 55 55 55 55 54 54 54 54 54 54 53 53 53 62 69 68 67 62 73 70 71 79 85 83 85 87 86 88 86 86 86 84 88 87 82 84 79 88 88 88 86 88 87 83 85 83 87 85 85 81 85
53 53 54 54 55 55 54 54 54 54 54 54 53 53 53 54 56 66 69 61 64 72 73 68 74 79 85 83 81 87 83 84 83 86 85 84 84 84 77 85 89 87 85 84 86 89 90 89 86 85 86 85 83 82
53 53 53 54 54 54 54 54 54 54 53 53 53 53 62 65 72 71 57 58 70 69 69 73 71 73 86 84 85 82 85 78 84 81 83 83 81 74 81 83 83 82 83 83 85 87 86 84 83 84 84 83 80 79
53 53 53 53 53 53 53 54 53 53 53 54 63 69 68 70 57 61 66 68 68 71 71 69 78 74 81 81 80 81 83 80 74 81 82 77 78 86 86 85 84 82 84 85 81 79 82 80 81 82 82 82 81 80
53 53 53 53 53 53 53 53 54 53 58 66 62 66 65 62 69 71 67 66 69 65 72 74 74 73 83 75 77 82 79 81 71 77 75 75 75 81 81 79 81 82 84 86 86 87 88 85 82 80 79 79 79 79
53 53 53 53 53 53 53 54 53 60 60 55 51 53 61 68 69 63 65 68 65 67 72 71 74 76 80 77 76 77 75 77 68 78 74 70 79 77 76 77 79 83 83 84 86 84 84 83 82 81 79 78 77 77
53 53 52 52 53 53 54 53 53 53 55 61 54 58 65 66 49 58 57 64 65 72 74 75 73 76 74 76 76 75 69 71 79 71 71 79 74 75 75 77 79 83 83 82 81 81 80 79 79 79 76 77 76 74
52 52 52 52 53 53 53 53 53 56 60 60 57 39 59 59 63 68 69 68 71 73 73 72 72 74 78 72 76 68 76 76 68 66 69 79 72 73 75 78 78 78 80 79 78 78 77 76 75 75 75 75 74 72
52 52 52 53 53 53 53 53 53 61 61 57 58 45 59 68 68 72 73 72 74 74 73 72 72 73 73 69 73 73 66 65 70 70 78 79 72 72 73 76 77 77 77 77 77 76 75 74 73 73 75 76 73 72
52 52 57 53 53 52 52 56 62 64 61 57 55 56 65 63 66 68 72 72 74 71 73 71 68 67 67 72 67 67 67 66 72 79 79 73 70 71 73 77 76 77 76 75 75 74 73 73 73 73 74 72 73 72
51 57 53 52 52 51 54 57 61 54 55 54 58 64 63 63 64 69 69 70 72 70 68 69 62 64 71 68 67 75 70 77 79 78 77 73 70 71 73 73 72 72 70 71 72 72 72 73 73 72 69 70 73 72
54 60 52 52 53 57 58 60 57 51 49 58 58 66 66 66 65 66 70 72 68 69 68 64 67 62 65 64 71 76 79 77 78 76 75 72 72 72 73 70 71 70 70 71 71 71 71 71 71 71 69 70 71 71
56 56 53 52 54 53 49 55 58 50 57 62 64 65 64 65 68 68 69 69 70 70 67 67 61 63 68 70 75 75 77 78 75 72 72 72 71 72 72 72 71 71 71 70 70 72 72 72 75 73 74 73 73 73
52 52 52 52 53 50 46 52 59 52 54 61 62 61 62 63 66 67 68 69 68 67 64 63 66 72 72 69 71 72 73 75 75 71 71 73 74 72 71 72 73 70 71 70 71 63 72 72 74 74 75 74 73 72
52 57 54 54 54 52 50 52 52 57 58 57 61 61 61 65 63 64 65 70 66 64 65 71 73 75 73 70 70 73 72 74 75 76 74 72 74 75 73 74 73 75 73 73 71 69 65 72 73 74 73 74 75 77
57 52 49 50 47 50 46 53 51 56 56 58 59 60 58 59 61 63 68 64 64 68 72 72 74 73 73 69 72 71 71 71 67 66 56 59 73 72 72 75 75 74 75 74 74 72 73 75 75 75 75 75 68 77
51 48 47 48 47 45 48 60 50 56 51 56 61 55 58 59 64 69 61 66 68 72 70 69 67 67 69 72 69 64 65 68 70 72 69 68 71 74 75 75 77 75 74 74 76 75 74 63 66 74 76 75 76 75
50 46 43 44 48 45 54 49 52 49 50 52 53 52 56 60 64 59 58 64 68 65 58 60 66 70 72 69 68 71 65 58 60 64 65 64 66 71 76 77 77 77 74 77 76 75 75 74 65 74 76 77 74 73
39 43 44 36 49 45 45 46 47 44 44 52 50 53 56 59 53 55 57 63 63 63 64 67 68 63 66 74 77 72 74 64 63 63 73 78 76 73 72 72 72 72 75 72 73 74 74 74 72 65 66 67 64 68
35 46 40 45 47 43 43 40 42 42 42 44 47 56 56 53 51 52 57 59 61 61 63 61 60 62 61 68 67 72 73 77 76 68 72 78 78 76 72 69 66 64 72 75 72 72 65 65 65 62 67 58 51 61
37 42 48 52 47 46 44 46 45 43 41 42 43 46 48 47 50 54 58 61 59 61 65 64 61 61 56 57 59 60 62 70 71 72 75 74 76 78 76 73 70 71 74 74 71 65 66 64 59 61 59 65 69 70
44 46 42 47 46 50 45 48 44 43 46 48 47 40 41 43 46 52 56 59 59 61 64 61 63 62 59 60 59 59 58 61 67 69 69 69 70 72 72 71 70 50 68 62 60 58 59 57 58 66 70 71 71 73
50 54 52 47 51 50 49 45 45 45 48 47 45 44 45 48 49 49 50 51 57 57 54 53 58 60 58 57 58 58 58 62 66 64 63 61 60 63 70 68 69 67 62 59 42 55 69 72 72 73 71 71 71 70
53 59 51 51 50 50 51 52 48 50 50 50 50 50 48 48 49 50 49 48 48 47 49 50 51 56 56 56 56 55 57 62 68 67 65 62 62 61 59 59 59 62 65 70 70 68 50 66 61 71 69 70 70 69
60 57 51 51 50 50 50 51 51 51 50 48 49 47 45 47 50 51 49 49 47 47 48 47 46 46 47 49 53 55 52 55 63 63 63 65 58 57 61 66 72 73 74 73 73 72 72 70 70 68 66 65 63 63
57 52 51 48 50 54 52 49 48 47 48 48 47 50 52 52 48 51 54 52 47 45 45 45 45 45 48 48 50 51 45 52 56 56 59 63 67 66 71 72 73 74 74 73 73 72 70 68 68 66 64 62 62 61
54 56 54 54 50 47 49 48 46 46 48 48 50 54 56 55 51 59 67 67 63 60 57 53 53 54 54 53 51 50 49 52 45 41 43 44 45 58 70 73 73 73 72 72 71 69 67 65 65 63 62 61 61 61
MSLP
1021.76 1021.42 1021.05 1020.67 1020.28 1019.90 1019.46 1019.02 1018.54 1018.03 1017.51 1016.98 1016.45 1015.88 1015.36 1014.82 1014.31 1013.73 1011.35 1011.18 1010.41 1007.68 1005.10 1004.43 1003.76 1002.94 1002.53 1002.20 1001.77 1003.04 1003.95 1004.03 1003.53 1003.40 1002.79 1003.19 1000.82 1000.16 999.63 999.71 999.48 999.33 999.75 999.54 999.90 999.93 999.94 1000.53 1000.72 1000.60 1001.61 1001.77 1002.05 1002.62
1021.66 1021.24 1020.87 1020.47 1020.06 1019.60 1019.14 1018.70 1018.27 1017.79 1017.32 1016.76 1016.25 1015.73 1015.22 1014.78 1014.36 1013.85 1011.30 1010.87 1010.75 1009.37 1005.80 1005.22 1004.46 1003.99 1003.51 1003.11 1002.60 1002.75 1001.98 1002.69 1002.73 1002.94 1003.35 1003.63 1002.63 1000.77 999.97 999.17 1000.00 999.67 999.87 999.54 1000.44 1000.33 1001.13 1001.15 1001.29 1001.81 1001.85 1002.23 1002.82 1003.37
1021.48 1021.10 1020.65 1020.25 1019.83 1019.36 1018.88 1018.37 1017.89 1017.39 1016.87 1016.39 1015.93 1015.43 1014.95 1014.63 1014.37 1014.09 1012.25 1011.24 1010.26 1008.33 1005.35 1004.11 1002.71 1002.85 1003.45 1003.35 1003.01 1002.41 1002.49 1002.66 1003.27 1002.91 1002.69 1002.82 1002.56 1001.29 999.49 999.42 1000.02 1000.30 1000.29 999.91 1000.63 1001.08 1001.35 1001.70 1002.16 1002.31 1002.42 1002.84 1003.33 1003.93
1021.33 1020.94 1020.59 1020.17 1019.69 1019.19 1018.65 1018.14 1017.61 1017.07 1016.53 1015.98 1015.49 1015.03 1014.59 1014.27 1014.05 1013.87 1012.37 1011.00 1010.56 1008.55 1005.91 1002.71 1003.09 1002.90 1003.21 1002.97 1003.06 1002.84 1002.59 1003.21 1003.15 1003.28 1002.48 1001.92 1001.91 1001.61 1000.51 999.96 1000.09 1000.08 1000.30 1000.06 1000.55 1001.45 1001.91 1002.08 1002.33 1002.80 1003.17 1003.55 1004.04 1004.66
1021.07 1020.73 1020.32 1019.91 1019.45 1018.94 1018.43 1017.92 1017.39 1016.81 1016.21 1015.58 1015.02 1014.59 1014.17 1013.77 1013.49 1012.96 1011.88 1011.11 1010.63 1009.70 1006.47 1003.78 1002.73 1002.35 1002.80 1002.80 1002.90 1002.98 1002.79 1002.54 1002.49 1002.28 1001.99 1001.36 1001.01 1001.23 1000.65 1000.06 999.17 999.60 999.46 999.34 999.16 1000.11 1000.59 1001.33 1002.53 1003.26 1003.67 1004.12 1004.71 1005.23
1020.68 1020.37 1020.01 1019.52 1019.04 1018.56 1018.01 1017.49 1016.97 1016.38 1015.72 1015.11 1014.48 1013.99 1013.66 1013.31 1012.99 1011.67 1010.11 1010.47 1010.39 1009.99 1007.89 1004.45 1002.75 1002.57 1002.56 1002.65 1002.68 1002.64 1002.61 1002.51 1002.41 1001.55 1000.94 1001.10 1001.41 1001.32 1000.03 999.15 999.09 999.30 999.85 999.96 1000.02 1000.46 1001.15 1001.68 1002.97 1003.55 1004.06 1004.70 1005.25 1005.79
1020.43 1019.98 1019.56 1019.14 1018.63 1018.10 1017.59 1016.98 1016.37 1015.74 1015.06 1014.36 1013.72 1013.19 1012.94 1012.69 1012.29 1011.26 1011.28 1011.06 1010.84 1010.26 1007.97 1004.97 1002.39 1002.25 1002.67 1002.33 1002.20 1002.22 1002.32 1002.20 1002.02 1001.33 1001.07 1000.61 1001.17 1001.66 1000.09 999.20 999.17 999.88 1000.34 1000.92 1001.16 1001.47 1002.02 1002.69 1003.33 1004.08 1004.74 1005.45 1006.12 1006.60
1020.20 1019.74 1019.26 1018.77 1018.27 1017.75 1017.19 1016.54 1015.81 1015.02 1014.23 1013.51 1012.83 1012.37 1012.05 1011.74 1012.06 1011.27 1010.98 1011.21 1010.98 1009.49 1007.93 1005.38 1002.82 1002.06 1002.20 1001.25 1001.36 1001.93 1001.56 1001.88 1001.70 1000.70 1001.29 1000.75 1001.32 1001.19 1000.02 999.70 999.67 1000.34 1000.93 1001.40 1001.55 1001.62 1001.79 1002.86 1003.89 1004.58 1005.24 1005.83 1006.41 1006.99
1019.90 1019.50 1019.03 1018.53 1018.03 1017.51 1016.91 1016.17 1015.32 1014.30 1013.33 1012.54 1011.93 1011.65 1011.50 1011.23 1010.16 1010.19 1011.33 1011.19 1010.51 1009.90 1007.09 1005.18 1003.03 1001.15 1001.94 1001.34 1001.31 1001.55 1001.00 1000.67 1001.23 1000.56 1000.57 1001.00 1000.14 1000.11 999.77 1000.08 1000.48 1001.09 1001.24 1001.46 1002.06 1002.12 1002.75 1003.43 1004.19 1004.87 1005.48 1006.11 1006.73 1007.38
1019.61 1019.23 1018.84 1018.39 1017.86 1017.29 1016.65 1015.89 1014.98 1013.78 1012.53 1011.66 1011.15 1010.78 1009.84 1010.39 1011.34 1011.01 1010.82 1009.70 1009.17 1008.11 1007.29 1005.07 1003.82 1002.18 1001.95 1001.25 1000.79 1000.63 1000.57 1000.03 1000.22 1000.15 1001.07 1000.67 999.86 999.97 1000.36 1000.76 1001.11 1001.64 1001.70 1002.05 1002.13 1002.53 1003.10 1003.80 1004.50 1005.26 1005.91 1006.61 1007.23 1007.93
1019.27 1018.89 1018.51 1018.08 1017.59 1017.03 1016.39 1015.69 1014.89 1013.49 1011.91 1011.55 1011.40 1010.83 1010.99 1010.78 1010.33 1009.31 1008.26 1007.69 1006.86 1006.29 1005.38 1004.41 1003.77 1002.71 1002.38 1001.64 1000.77 1000.84 999.94 999.93 999.90 999.88 1000.30 999.49 999.61 999.75 1000.97 1001.59 1001.98 1002.29 1002.35 1002.41 1002.62 1003.01 1003.40 1004.14 1005.03 1005.95 1006.77 1007.41 1007.92 1008.36
1018.90 1018.53 1018.15 1017.78 1017.34 1016.83 1016.24 1015.67 1015.14 1014.18 1013.97 1014.35 1014.42 1013.45 1011.80 1009.72 1008.44 1007.78 1006.57 1006.19 1005.69 1004.28 1004.39 1003.93 1003.46 1003.43 1002.72 1002.99 1001.68 1001.26 1000.30 1000.25 999.60 1000.30 1000.07 999.34 999.56 1000.86 1001.64 1002.07 1002.42 1002.51 1002.77 1002.92 1003.24 1003.78 1004.46 1005.20 1005.94 1006.63 1007.25 1007.79 1008.37 1009.02
1018.49 1018.14 1017.76 1017.44 1017.05 1016.63 1016.16 1015.77 1015.33 1014.89 1013.94 1013.54 1013.59 1011.72 1009.79 1008.59 1007.59 1006.31 1005.24 1004.61 1004.27 1004.17 1004.11 1003.87 1003.32 1003.17 1003.24 1002.94 1001.76 1001.07 1000.39 999.75 1000.08 999.71 999.12 999.07 1000.59 1001.56 1002.16 1002.61 1002.85 1002.99 1003.36 1003.86 1004.45 1005.13 1005.80 1006.41 1006.93 1007.28 1007.90 1008.42 1008.95 1009.48
1018.07 1017.77 1017.47 1017.11 1016.76 1016.37 1016.02 1015.60 1015.14 1014.36 1013.66 1012.16 1011.36 1010.53 1008.72 1007.18 1006.11 1005.19 1004.71 1004.51 1004.80 1004.65 1004.28 1004.06 1003.37 1002.79 1002.45 1002.21 1001.23 1000.48 1000.02 1000.03 999.26 998.72 998.73 999.14 1001.01 1002.04 1002.65 1002.98 1003.29 1003.68 1004.15 1004.74 1005.41 1006.07 1006.63 1007.17 1007.74 1008.23 1008.51 1008.91 1009.36 1009.87
1017.76 1017.38 1017.11 1016.67 1016.48 1016.23 1015.81 1015.31 1014.89 1013.97 1013.02 1011.68 1010.97 1009.38 1007.82 1006.89 1006.43 1005.97 1005.78 1005.33 1005.07 1005.05 1004.58 1003.95 1003.39 1003.00 1001.99 1001.73 1001.00 1000.23 1000.17 999.17 998.61 998.45 998.63 999.90 1001.63 1002.51 1003.07 1003.48 1003.86 1004.33 1004.91 1005.53 1006.19 1006.75 1007.32 1007.85 1008.28 1008.63 1008.90 1009.19 1009.77 1010.21
1017.53 1017.06 1016.29 1016.54 1016.35 1015.99 1015.52 1014.66 1013.94 1013.56 1012.57 1011.71 1010.81 1009.10 1007.69 1007.03 1006.00 1005.87 1005.66 1005.37 1005.47 1005.23 1004.76 1004.35 1003.19 1002.30 1001.33 1000.60 1000.08 999.55 998.95 998.45 998.41 998.98 999.84 1001.25 1002.27 1003.06 1003.59 1004.04 1004.62 1005.08 1005.67 1006.27 1006.95 1007.44 1007.85 1008.26 1008.55 1008.98 1009.36 1009.77 1010.17 1010.47
1017.43 1016.53 1016.53 1016.52 1016.20 1015.62 1014.95 1014.61 1013.57 1012.98 1012.09 1010.99 1009.44 1008.78 1008.19 1007.43 1006.63 1006.23 1006.31 1005.94 1006.02 1005.22 1003.94 1003.77 1002.91 1001.85 1001.24 1000.05 999.52 999.05 998.78 998.69 999.03 1000.02 1000.77 1001.72 1002.62 1003.41 1004.07 1004.81 1005.55 1006.10 1006.65 1007.08 1007.42 1007.84 1008.25 1008.71 1009.07 1009.45 1009.82 1010.25 1010.39 1010.86
1016.79 1015.89 1016.42 1016.41 1016.02 1014.84 1014.56 1014.02 1013.18 1012.70 1011.49 1010.04 1008.99 1007.86 1007.85 1007.53 1007.05 1006.69 1006.37 1006.33 1006.25 1005.38 1004.87 1004.04 1003.74 1002.31 1000.94 1000.00 999.26 999.10 999.76 1000.17 1000.39 1000.87 1001.47 1002.53 1003.30 1004.07 1004.62 1005.34 1005.99 1006.55 1006.96 1007.43 1007.83 1008.25 1008.63 1008.87 1009.04 1009.31 1010.05 1010.57 1010.77 1011.16
1016.34 1016.29 1016.29 1016.35 1016.19 1015.72 1014.61 1013.43 1013.01 1011.78 1010.21 1009.25 1008.62 1008.30 1008.07 1007.58 1007.21 1007.06 1006.80 1006.57 1006.39 1006.20 1005.66 1004.37 1003.36 1001.99 1001.10 1001.15 1000.75 1000.67 1000.73 1000.83 1001.12 1001.85 1002.54 1003.23 1003.92 1004.46 1004.99 1005.64 1006.28 1006.75 1007.26 1007.71 1008.08 1008.19 1008.56 1008.83 1008.69 1009.30 1009.75 1010.33 1010.32 1010.72
1016.45 1016.21 1016.05 1016.02 1016.09 1015.30 1014.51 1013.35 1012.98 1011.88 1010.05 1008.81 1008.82 1008.25 1007.74 1007.37 1006.97 1006.65 1006.36 1006.04 1005.82 1005.47 1004.51 1003.57 1002.51 1001.65 1001.83 1002.34 1002.00 1001.94 1002.34 1001.71 1002.05 1002.27 1002.67 1003.58 1004.27 1004.84 1005.39 1005.78 1006.21 1006.96 1007.40 1007.90 1008.20 1008.44 1008.77 1009.04 1009.24 1009.54 1009.76 1009.97 1010.32 1010.60
1016.07 1015.58 1015.65 1015.60 1015.41 1015.18 1014.46 1013.19 1012.24 1011.12 1010.24 1009.23 1008.30 1007.99 1007.27 1006.64 1006.41 1005.93 1005.51 1005.30 1004.99 1004.39 1003.55 1002.91 1002.42 1002.39 1002.95 1002.91 1003.07 1002.03 1002.51 1002.41 1002.31 1002.29 1002.52 1003.25 1004.21 1004.68 1005.45 1005.94 1006.54 1006.70 1007.05 1007.45 1007.87 1008.33 1008.64 1008.71 1009.19 1009.57 1010.09 1010.14 1010.31 1010.36
1015.69 1015.94 1015.82 1015.59 1015.27 1014.61 1014.25 1013.33 1012.46 1011.41 1010.60 1008.97 1008.40 1007.85 1007.01 1006.11 1005.46 1005.08 1004.95 1004.50 1004.03 1003.49 1003.15 1002.88 1002.62 1002.95 1002.83 1003.03 1002.89 1003.36 1003.20 1003.22 1003.17 1003.15 1003.63 1004.20 1004.19 1004.64 1005.09 1005.42 1005.86 1006.14 1006.61 1007.08 1007.49 1007.97 1008.27 1008.63 1009.13 1009.44 1009.66 1009.80 1010.37 1010.17
1016.06 1016.07 1015.77 1015.29 1014.67 1013.89 1013.03 1012.30 1011.82 1010.61 1009.63 1008.45 1007.90 1007.19 1006.24 1005.73 1005.17 1005.33 1004.50 1003.63 1003.37 1003.61 1004.00 1004.03 1004.11 1003.98 1003.56 1003.10 1003.55 1003.75 1003.39 1004.14 1003.86 1003.46 1003.63 1004.18 1004.36 1004.77 1004.91 1005.09 1005.34 1005.78 1006.21 1006.85 1007.30 1007.64 1008.19 1008.79 1009.47 1009.32 1009.49 1009.89 1009.82 1009.96
1016.03 1015.68 1015.23 1014.64 1013.96 1013.14 1012.50 1011.86 1011.55 1010.98 1010.09 1008.84 1007.73 1006.79 1006.01 1005.69 1005.55 1004.98 1003.79 1003.28 1003.21 1004.45 1004.98 1004.82 1004.33 1003.45 1003.02 1003.10 1003.11 1003.46 1004.15 1003.98 1004.79 1004.47 1003.61 1003.75 1003.91 1004.69 1004.69 1004.77 1005.01 1005.31 1006.17 1006.59 1007.13 1007.57 1008.14 1008.76 1009.14 1009.55 1009.55 1009.68 1009.95 1010.13
1015.95 1015.15 1014.71 1014.15 1013.48 1012.92 1012.10 1011.57 1011.05 1011.05 1010.07 1008.72 1008.11 1006.91 1006.02 1006.03 1005.48 1004.55 1003.62 1003.31 1003.96 1004.15 1004.37 1004.32 1004.47 1004.43 1003.76 1002.55 1002.47 1002.88 1003.30 1004.31 1004.33 1003.00 1003.16 1003.07 1003.35 1004.24 1004.91 1005.49 1005.91 1006.25 1006.53 1006.72 1007.04 1007.51 1008.03 1008.84 1009.52 1010.15 1010.40 1010.64 1010.72 1010.67
1015.07 1014.10 1013.94 1013.00 1012.61 1012.57 1012.19 1011.69 1011.22 1010.94 1010.66 1009.72 1008.93 1007.62 1007.02 1006.37 1005.51 1004.39 1004.16 1004.29 1004.35 1004.65 1004.65 1004.84 1004.88 1004.62 1004.60 1004.10 1004.05 1003.27 1003.19 1003.38 1003.20 1003.73 1003.58 1003.05 1003.14 1003.64 1004.46 1005.32 1006.27 1007.03 1007.03 1006.91 1007.41 1008.04 1009.01 1009.64 1010.09 1010.46 1010.54 1011.10 1011.28 1011.37
1014.39 1013.42 1012.97 1012.93 1012.78 1012.51 1012.01 1011.46 1011.29 1011.16 1010.67 1009.90 1009.49 1008.65 1007.66 1006.54 1005.39 1005.37 1005.44 1005.30 1005.26 1005.22 1005.16 1005.43 1005.40 1005.31 1005.53 1005.52 1005.42 1005.23 1005.00 1004.15 1003.75 1003.59 1003.94 1004.38 1004.57 1004.61 1004.66 1005.11 1005.65 1006.51 1006.87 1007.14 1008.30 1009.23 1009.53 1010.09 1010.49 1010.89 1011.13 1010.99 1010.94 1010.87
1013.75 1013.15 1012.56 1012.21 1012.10 1011.65 1011.31 1010.69 1010.75 1010.62 1010.08 1009.67 1009.40 1009.28 1008.72 1008.21 1007.60 1007.40 1006.81 1006.45 1006.19 1006.01 1005.56 1005.68 1005.57 1005.81 1005.83 1005.66 1005.70 1005.60 1005.61 1005.43 1005.19 1005.27 1005.53 1005.83 1006.00 1006.04 1006.20 1006.65 1007.17 1007.88 1008.39 1009.21 1009.75 1010.15 1010.17 1010.40 1010.94 1010.86 1010.47 1010.49 1010.73 1011.00
1012.56 1011.87 1011.72 1011.21 1010.75 1010.67 1010.62 1010.66 1010.82 1010.85 1010.41 1009.94 1009.34 1009.06 1008.97 1009.34 1009.27 1008.58 1007.97 1007.17 1006.33 1006.17 1006.13 1006.09 1005.95 1005.99 1006.07 1006.14 1006.11 1006.05 1006.02 1005.66 1004.86 1004.76 1004.96 1005.92 1006.77 1007.39 1007.59 1007.85 1008.18 1008.88 1009.60 1010.05 1010.41 1010.27 1009.71 1009.61 1010.14 1010.35 1010.72 1011.08 1011.44 1011.76
1011.16 1011.16 1010.83 1010.30 1010.05 1009.86 1010.27 1010.49 1010.42 1010.23 1009.97 1009.60 1009.17 1009.00 1009.74 1009.90 1010.04 1009.51 1008.62 1007.90 1007.53 1007.35 1007.21 1007.11 1006.72 1006.40 1006.47 1006.47 1006.54 1006.68 1006.64 1006.24 1005.52 1005.09 1005.36 1006.13 1007.28 1008.40 1009.07 1008.94 1009.06 1009.46 1009.67 1009.67 1009.98 1010.54 1010.78 1010.81 1011.28 1011.26 1011.40 1011.54 1011.74 1012.01
1010.73 1010.61 1010.49 1010.45 1010.35 1010.39 1010.49 1010.45 1010.28 1010.21 1010.21 1010.15 1010.03 1010.04 1010.39 1010.49 1009.99 1009.52 1009.00 1008.74 1008.49 1008.37 1008.02 1007.99 1007.87 1007.83 1007.62 1007.69 1007.52 1007.39 1007.50 1007.47 1006.96 1006.67 1007.17 1007.71 1008.51 1009.05 1009.23 1009.01 1008.67 1008.95 1009.36 1009.64 1009.91 1010.23 1010.68 1010.90 1011.27 1011.60 1011.99 1012.34 1012.73 1012.72
1010.44 1010.29 1010.35 1010.15 1010.16 1010.23 1010.41 1010.37 1010.39 1010.49 1010.65 1010.49 1010.31 1010.17 1009.91 1009.61 1009.54 1009.95 1010.07 1009.53 1008.99 1008.58 1008.82 1008.81 1008.54 1008.85 1008.94 1008.91 1008.77 1008.76 1008.80 1008.23 1007.95 1008.36 1008.57 1008.49 1008.72 1008.99 1009.16 1009.21 1009.23 1009.32 1009.55 1009.79 1010.20 1010.75 1011.24 1011.49 1011.84 1012.29 1012.78 1013.12 1013.36 1013.54
1010.22 1009.91 1009.98 1010.02 1010.22 1010.35 1010.52 1010.72 1010.85 1010.99 1011.00 1010.77 1010.50 1010.16 1009.81 1009.60 1009.54 1009.51 1009.01 1008.89 1008.79 1008.85 1009.00 1009.27 1009.43 1009.44 1009.48 1009.47 1009.43 1009.55 1009.70 1009.90 1009.95 1009.56 1009.11 1009.29 1009.34 1009.51 1009.82 1009.89 1009.99 1010.15 1010.38 1010.68 1011.13 1011.61 1011.99 1012.41 1012.75 1013.17 1013.45 1013.64 1013.82 1013.97
Wind_Speed
11 12 12 12 13 14 15 17 18 19 20 20 20 20 20 19 18 9 4 2 5 5 8 4 3 4 3 5 8 9 2 4 5 6 5 2 10 3 3 3 3 8 12 10 9 12 6 6 8 4 6 7 9 11
13 12 13 14 15 15 13 14 16 17 18 20 20 20 19 18 17 12 4 0 3 6 8 7 12 13 10 4 3 6 9 6 3 2 2 4 11 7 4 3 1 4 3 5 6 7 4 4 6 4 6 10 10 10
13 14 13 16 16 15 15 15 16 19 19 19 20 19 19 17 14 9 6 5 5 5 8 7 5 2 7 12 11 4 3 5 4 2 4 4 6 6 5 6 3 2 3 1 4 5 4 4 5 7 10 11 11 10
14 14 15 16 17 17 18 18 18 18 19 21 20 20 19 16 13 8 5 3 5 5 5 1 2 3 1 5 9 11 3 4 4 2 3 5 4 3 3 2 11 2 6 6 5 3 3 5 9 9 11 11 11 8
12 13 14 15 16 17 18 18 19 20 21 22 22 21 20 18 13 9 6 4 4 6 6 6 13 2 3 6 7 9 11 8 2 5 5 5 1 4 1 4 5 7 5 6 2 11 7 13 12 13 12 11 10 8
11 11 13 16 15 16 18 19 20 21 22 23 22 21 19 16 11 5 5 5 5 3 5 5 4 2 1 3 8 10 8 6 5 4 4 2 1 5 5 6 3 6 2 6 4 4 3 14 14 12 12 10 8 7
15 14 13 14 16 16 18 19 20 21 22 22 22 21 18 12 6 4 7 5 2 3 4 5 3 5 2 4 4 4 7 5 6 5 5 4 4 4 5 9 5 2 3 4 6 11 12 16 13 12 12 12 10 9
14 16 15 15 15 16 18 20 21 22 23 23 22 20 14 3 5 4 4 2 5 5 4 5 4 4 2 5 5 3 6 7 6 5 2 6 3 3 6 6 7 3 4 7 11 4 13 13 15 14 13 11 9 7
14 15 17 17 16 16 19 21 22 24 25 24 18 9 5 5 4 5 8 6 4 5 4 3 4 3 1 2 0 5 4 7 3 6 5 4 6 6 3 6 6 6 7 9 9 11 16 16 15 13 11 8 6 5
14 14 15 17 18 18 20 21 22 25 26 16 6 5 5 4 7 6 5 5 6 5 5 5 1 4 4 2 6 4 4 5 6 5 4 6 10 10 6 2 4 8 6 14 16 16 16 15 13 11 8 6 5 3
14 15 16 16 18 19 20 20 19 25 9 4 5 3 6 4 5 4 4 5 4 5 5 4 5 7 3 5 4 2 4 4 5 6 6 5 5 8 6 6 8 9 12 11 9 12 13 13 12 10 8 6 4 4
13 15 16 16 17 18 19 16 16 11 7 8 6 6 5 4 4 5 4 3 5 2 4 3 2 3 1 3 4 4 4 4 5 6 5 5 3 6 8 10 11 12 11 11 13 13 12 11 9 8 7 6 6 5
11 14 15 16 17 18 14 15 15 13 12 3 4 4 1 3 1 6 7 4 3 2 2 0 1 2 4 5 4 4 6 6 4 5 6 2 7 7 9 12 13 12 14 14 14 12 12 10 7 6 6 6 5 5
11 14 14 15 16 12 14 15 16 11 5 3 3 4 5 5 4 2 2 4 5 3 3 4 5 3 2 5 4 5 2 3 7 8 8 5 10 11 11 12 14 15 14 14 13 11 10 9 8 6 6 6 6 6
11 14 14 14 7 13 14 17 15 6 3 3 2 4 5 2 3 1 1 2 2 4 4 5 5 4 4 4 5 2 5 6 5 8 5 7 12 13 13 14 14 13 12 11 10 9 9 8 7 7 7 7 7 8
10 15 2 7 12 15 16 14 4 2 3 3 4 5 3 5 4 4 1 1 3 5 4 4 5 4 6 5 6 9 6 5 5 2 5 10 13 13 13 13 12 11 10 9 8 8 8 7 7 8 7 7 7 7
6 5 4 8 13 18 8 4 2 3 4 4 4 5 5 5 5 2 2 3 5 6 4 3 6 6 5 6 10 3 9 4 5 5 5 9 15 15 14 13 11 11 9 9 9 8 8 7 8 8 8 7 7 8
5 3 3 9 11 8 2 3 2 3 5 5 6 2 3 4 5 5 3 3 4 4 4 2 5 5 4 4 3 2 2 3 4 4 6 11 14 13 12 13 11 10 9 9 8 8 7 8 7 6 8 7 7 8
7 9 9 9 7 4 4 2 3 4 5 4 5 5 5 6 5 6 7 6 5 5 6 4 6 5 6 1 1 4 2 0 4 5 9 12 12 12 11 11 11 10 10 9 8 6 6 6 4 6 7 8 6 7
10 12 12 9 5 2 4 3 2 5 5 3 4 6 6 6 6 6 7 7 7 6 6 6 6 6 4 4 5 4 5 3 5 8 11 10 9 11 10 9 7 9 8 8 6 3 7 6 6 6 6 5 6 6
5 4 3 5 4 3 3 4 4 3 5 5 5 5 6 5 7 8 8 8 8 8 9 8 6 4 2 4 5 4 3 3 7 6 10 11 9 8 8 7 9 7 7 7 6 6 5 6 6 6 7 5 4 4
2 5 2 2 2 2 4 3 5 5 4 5 7 6 6 6 7 7 6 8 10 8 8 8 3 4 3 3 4 2 2 7 5 7 8 7 10 9 8 8 8 7 6 6 5 7 7 6 6 5 4 5 3 4
2 2 2 3 3 2 4 3 5 4 5 3 3 4 4 4 3 1 5 6 7 1 3 4 5 7 7 1 5 3 9 5 4 7 10 11 8 8 8 9 7 7 7 7 6 7 7 5 4 5 5 4 4 3
3 2 2 2 4 3 2 3 3 3 4 4 4 4 4 2 2 4 7 8 3 2 2 4 4 6 5 5 5 7 7 2 7 5 4 9 8 5 5 5 6 5 4 6 7 6 7 8 7 5 4 1 3 4
2 3 3 4 5 4 5 4 3 1 5 4 4 6 1 1 4 5 7 2 3 5 3 4 2 1 6 5 1 3 12 11 12 12 5 5 8 7 5 5 3 3 5 7 8 9 8 6 6 4 5 5 3 2
2 4 3 3 1 3 2 3 2 3 3 3 5 6 3 3 5 5 1 1 3 3 2 2 4 4 4 5 6 3 2 3 5 5 4 3 4 6 7 7 7 5 6 5 7 8 8 7 7 7 7 7 8 6
3 1 1 2 3 3 4 5 4 3 4 4 3 4 4 5 4 3 3 3 3 2 3 3 4 3 3 4 4 4 5 6 3 4 6 5 4 3 4 5 5 5 6 8 10 10 11 9 6 5 4 5 6 6
2 3 4 2 4 4 5 4 1 3 3 1 2 2 6 9 6 7 6 9 7 7 5 3 4 2 3 2 2 1 2 5 10 11 10 9 7 6 9 9 11 13 11 8 9 7 8 9 8 10 7 7 6 5
4 2 4 8 5 5 3 2 3 3 2 3 3 1 1 1 4 5 5 9 4 3 2 1 1 1 3 3 4 3 3 5 11 15 15 11 9 7 9 10 9 9 8 7 9 1 8 8 8 8 8 6 5 6
2 2 5 4 4 3 4 4 3 3 3 3 3 1 4 5 8 6 7 8 7 5 4 4 4 2 3 4 5 6 5 4 5 5 10 12 12 9 7 6 7 5 6 8 10 11 11 11 10 7 6 5 4 4
3 3 3 3 3 3 3 5 2 1 4 5 6 8 6 0 3 8 9 9 8 9 9 10 9 7 8 8 7 7 6 6 8 13 12 13 10 8 7 7 9 9 8 9 10 9 9 7 6 7 7 7 6 6
3 3 4 4 2 3 3 4 3 4 2 1 2 1 0 1 6 3 4 5 9 10 10 9 9 8 7 5 5 5 6 7 9 9 10 8 12 10 8 6 6 7 8 9 9 9 8 7 7 7 7 6 6 5
4 4 3 3 2 2 2 0 1 3 4 3 5 8 8 9 11 7 5 7 7 7 7 4 3 5 6 8 7 6 9 7 11 12 16 14 13 11 7 7 8 9 11 10 9 9 9 9 7 7 6 5 5 4
Wind_Direction
332 330 326 327 329 330 332 334 333 332 338 340 342 343 345 349 353 337 309 250 305 304 288 274 288 288 169 222 178 131 101 284 197 233 191 317 298 68 246 111 144 191 200 213 230 227 208 154 151 256 85 139 146 150
347 342 345 341 335 326 322 326 329 328 330 333 336 337 340 345 349 335 275 153 303 261 311 314 286 280 280 315 312 154 221 144 342 152 56 153 293 285 4 335 175 207 360 17 343 38 86 136 55 115 138 138 143 144
347 343 342 338 336 334 330 326 331 332 329 330 332 332 333 337 341 341 300 320 244 266 264 234 231 152 231 236 248 270 139 117 201 358 161 174 243 316 251 310 299 151 213 65 222 103 101 126 122 135 137 134 139 133
338 342 340 337 335 332 333 332 330 327 327 327 328 328 328 328 328 316 279 341 277 287 281 111 146 243 26 226 221 239 33 154 98 198 211 215 229 192 301 308 249 25 182 135 101 130 148 163 152 141 132 129 120 118
326 330 324 322 328 329 328 327 326 323 322 322 321 321 322 321 317 284 245 261 257 300 327 308 308 359 250 212 211 210 221 236 208 199 203 232 190 210 213 235 218 190 157 223 271 157 221 157 161 154 144 134 130 127
311 318 321 325 321 320 326 322 319 319 317 315 312 313 315 315 313 263 216 170 216 250 277 282 33 224 269 233 211 210 215 221 226 255 234 204 45 266 235 244 279 202 214 346 348 146 116 145 150 150 135 130 127 126
331 324 321 315 322 321 319 320 318 315 312 310 309 307 309 299 251 274 1 24 343 271 258 280 251 127 210 179 160 177 199 201 233 224 238 259 180 245 269 258 202 256 212 147 134 129 127 145 150 137 130 120 121 110
325 325 326 321 320 325 321 320 320 316 312 311 308 307 307 195 245 210 135 42 252 262 254 275 268 230 192 194 171 194 172 196 189 238 166 228 146 238 255 261 278 194 183 174 173 221 153 129 134 132 131 135 136 126
325 327 330 332 333 333 327 324 322 317 316 313 306 309 183 226 214 76 342 286 223 295 296 248 281 65 163 195 41 176 238 195 101 223 227 236 227 229 275 250 219 201 188 165 164 127 136 140 134 133 136 136 132 127
323 325 328 329 330 329 329 327 324 320 317 302 263 222 169 67 336 253 176 199 195 189 225 261 359 258 298 168 187 187 207 226 205 192 107 235 249 243 248 248 206 180 179 164 149 147 142 137 135 137 136 121 108 121
320 322 324 327 328 329 328 325 330 323 307 4 349 355 349 320 221 214 208 225 158 220 205 247 277 278 135 277 214 237 205 195 240 176 229 210 236 204 170 176 157 165 163 159 149 143 137 133 135 135 135 129 127 134
313 315 317 322 326 327 325 335 346 344 350 325 300 288 261 236 214 230 205 167 224 250 152 246 74 241 222 301 258 183 221 195 240 130 215 238 176 124 160 151 150 151 145 138 130 118 118 119 124 127 133 125 114 109
303 310 314 320 322 324 331 337 337 319 285 190 228 245 286 166 188 222 190 188 209 161 125 294 236 229 175 227 253 227 217 221 123 206 222 246 111 139 145 149 148 141 134 125 119 117 117 116 117 119 122 119 120 120
298 304 312 313 314 315 328 331 334 326 278 285 298 305 233 179 234 251 280 24 41 290 329 314 273 253 165 203 251 230 145 196 224 226 216 184 154 148 153 150 144 141 136 132 128 128 125 124 116 115 116 135 130 133
297 301 307 301 324 323 325 322 316 285 283 277 258 245 222 356 243 287 344 250 61 330 309 279 229 253 184 236 210 227 197 233 215 227 216 109 149 154 155 157 147 140 136 134 135 134 127 128 123 124 126 129 129 130
302 298 250 356 325 324 316 305 258 260 235 255 235 250 217 248 191 193 180 329 30 325 278 235 263 240 218 223 195 214 227 220 186 147 100 137 152 153 156 149 146 138 137 133 135 133 130 134 137 122 128 124 133 133
298 256 49 328 324 305 304 272 247 217 302 248 225 223 268 293 292 309 310 340 336 282 275 301 240 218 328 228 225 229 231 283 97 124 134 148 155 154 149 135 136 135 135 138 130 133 129 132 130 138 134 140 135 132
255 296 347 325 324 313 271 231 238 234 253 239 250 197 217 270 286 280 273 313 310 322 289 305 319 246 250 246 248 122 88 66 37 108 131 146 146 142 142 137 139 139 136 136 133 132 140 146 157 143 137 145 145 139
294 310 315 312 325 313 298 241 260 261 238 264 267 263 263 276 278 283 275 273 265 285 286 244 257 243 253 346 348 51 52 157 126 128 128 137 141 140 138 135 139 141 140 138 147 152 144 167 140 144 149 169 158 158
280 279 278 281 252 267 266 234 203 271 273 20 282 263 266 272 281 272 266 257 252 244 223 224 248 287 322 350 327 352 315 87 151 155 147 146 144 139 142 146 142 137 141 137 141 132 143 153 155 156 156 166 157 163
242 55 305 226 205 237 283 289 239 256 308 276 307 294 276 246 241 242 237 234 223 228 235 247 247 263 314 325 289 349 295 264 192 197 157 149 152 145 145 141 154 162 156 162 162 152 187 156 150 156 157 189 200 227
47 358 305 180 250 212 241 255 289 321 263 283 290 254 266 258 251 242 236 235 230 237 230 270 341 315 266 276 357 2 73 192 128 99 81 122 157 153 161 160 171 168 171 169 168 162 170 157 158 167 183 171 211 210
317 213 233 246 253 226 250 218 252 232 257 272 243 242 231 231 228 144 241 230 231 98 349 301 300 289 279 233 133 113 64 330 204 182 147 160 175 167 168 168 171 178 175 170 175 170 171 139 146 200 170 210 222 217
176 271 254 261 229 263 244 234 230 250 271 256 252 258 253 248 297 252 253 239 147 90 223 265 291 272 211 225 202 165 153 112 329 252 161 149 135 198 196 173 173 171 154 178 177 165 166 183 149 186 208 79 15 318
263 229 205 253 217 254 231 230 232 226 260 229 248 251 324 251 241 241 241 239 195 219 222 190 211 5 309 314 64 173 152 163 191 222 182 143 127 133 132 130 144 153 187 189 184 178 169 142 154 111 126 125 107 97
236 204 205 309 323 269 270 258 243 348 333 276 303 322 291 258 243 245 274 216 201 198 242 317 312 327 323 340 324 284 150 246 252 179 151 152 141 154 154 158 165 171 212 194 175 154 133 141 145 156 135 115 108 127
294 278 259 243 259 276 263 243 229 229 229 234 219 266 268 244 246 75 23 8 341 300 340 317 286 281 279 296 300 290 298 314 22 105 95 89 81 75 138 158 147 119 162 150 120 140 145 124 98 114 134 160 170 177
275 263 265 260 252 236 270 300 346 294 292 261 216 216 321 353 339 345 325 326 313 295 297 256 258 241 254 305 298 201 124 140 131 119 107 80 68 77 88 92 97 81 102 101 110 108 120 130 164 200 170 123 106 74
252 227 257 276 241 220 215 250 194 239 249 274 308 338 324 105 321 321 323 319 336 3 37 354 25 180 90 75 75 79 130 191 170 156 129 119 116 92 108 112 111 103 106 95 41 113 168 134 122 112 103 96 90 75
329 326 288 284 299 349 53 4 305 282 245 249 260 108 73 23 5 359 353 357 15 22 28 24 359 54 116 143 117 82 34 1 349 201 145 132 122 117 115 106 112 139 164 141 116 108 106 110 118 128 124 116 96 77
322 293 281 307 317 327 311 310 287 22 16 41 50 79 71 185 327 10 2 14 21 36 48 49 39 32 44 35 32 78 75 28 65 69 89 111 120 127 135 171 139 126 125 134 134 130 131 117 105 104 93 82 71 34
295 273 313 296 310 339 341 13 7 31 51 93 23 327 287 63 68 65 353 355 13 20 24 36 29 33 34 26 37 42 31 38 61 93 117 119 110 122 134 118 108 109 121 120 112 111 107 107 101 98 99 78 67 68
276 273 266 282 273 320 15 41 78 50 72 85 54 57 52 50 51 40 56 53 58 75 79 92 89 68 64 71 75 59 62 70 66 61 59 58 59 71 97 102 103 108 107 103 103 104 101 100 94 87 84 85 85 78